Baker, MT

8:13 PM MST on February 19, 2017 (GMT -0700)
Baker Municipal

Weather History for KBHK - March, 2014

Change the Weather History Date:

Tuesday, March 11, 2014

  Actual Average Record
Temperature  
Mean Temperature 36 °F -  
Max Temperature 46 °F 48 °F 69 °F (2015)
Min Temperature 28 °F 24 °F -25 °F (1998)
Degree Days  
Heating Degree Days 30    
Moisture  
Dew Point 29 °F    
Average Humidity 82    
Maximum Humidity 100    
Minimum Humidity 41    
Precipitation  
Precipitation 0.04 in - - ()
Sea Level Pressure  
Sea Level Pressure 30.12 in    
Wind  
Wind Speed 10 mph (NW)    
Max Wind Speed 24 mph    
Max Gust Speed 32 mph    
Visibility 9 miles    
Events Snow    
Averages and records for this station are not official NWS values.
T = Trace of Precipitation, MM = Missing Value Source: NWS Daily Summary

Daily Weather History Graph

Daily Weather History Graph

Search for Another Location

Airport or City:

Trip Planner

Search our weather history database for the weather conditions in past years. The results will help you decide how hot, cold, wet, or windy it might be!

Date:

Astronomy

Mar. 11, 2014 Rise Set
Actual Time 7:17 AM MDT 6:57 PM MDT
Civil Twilight 6:47 AM MDT 7:27 PM MDT
Nautical Twilight 6:12 AM MDT 8:02 PM MDT
Astronomical Twilight 5:37 AM MDT 8:37 PM MDT
Moon 2:24 PM MDT (3/11) 4:25 AM MDT (3/11)
Length of Visible Light 12h 39m
Length of Day
11h 40m
Waxing Gibbous, 78% of the Moon is Illuminated
Mar 11
Waxing Gibbous
Mar 16
Full
Mar 23
Last Quarter
Mar 30
New
Apr 7
First Quarter

Hourly Weather History & Observations

Time (MDT) Temp. Windchill Dew Point Humidity Pressure Visibility Wind Dir Wind Speed Gust Speed Precip Events Conditions
12:47 AM 33.8 °F 27.0 °F 33.8 °F 100% 29.87 in 2.0 mi NNW 8.1 mph - 0.01 in Snow Light Snow
12:51 AM 33.1 °F 27.7 °F 33.1 °F 100% 29.92 in 1.5 mi NW 5.8 mph - 0.01 in Snow Light Snow
12:58 AM 33.1 °F 26.1 °F 33.1 °F 100% 29.88 in 3.0 mi NW 8.1 mph - 0.00 in Snow Light Snow
1:03 AM 33.1 °F 26.9 °F 33.1 °F 100% 29.88 in 9.0 mi NW 6.9 mph - 0.00 in Snow Light Snow
1:51 AM 33.1 °F 27.7 °F 33.1 °F 100% 29.94 in 8.0 mi WNW 5.8 mph - 0.02 in Snow Light Snow
1:56 AM 33.1 °F 26.9 °F 33.1 °F 100% 29.90 in 9.0 mi WNW 6.9 mph - 0.00 in   Overcast
2:08 AM 33.1 °F 26.1 °F 33.1 °F 100% 29.90 in 10.0 mi WNW 8.1 mph - 0.01 in   Overcast
2:51 AM 33.1 °F 26.1 °F 33.1 °F 100% 29.96 in 10.0 mi NW 8.1 mph - 0.01 in   Overcast
2:57 AM 34.0 °F 26.6 °F 34.0 °F 100% 29.91 in 10.0 mi NW 9.2 mph - N/A   Overcast
3:51 AM 33.1 °F 24.4 °F 33.1 °F 100% 29.99 in 10.0 mi NNW 11.5 mph - N/A   Overcast
4:51 AM 32.0 °F 23.6 °F 30.9 °F 96% 30.02 in 10.0 mi NNW 10.4 mph - N/A   Scattered Clouds
5:51 AM 32.0 °F 23.0 °F 30.0 °F 92% 30.06 in 10.0 mi NNW 11.5 mph - N/A   Mostly Cloudy
6:51 AM 30.9 °F 23.5 °F 28.9 °F 92% 30.10 in 10.0 mi WNW 8.1 mph - N/A   Clear
7:51 AM 28.9 °F 22.8 °F 28.9 °F 100% 30.14 in 10.0 mi West 5.8 mph - N/A   Clear
8:51 AM 30.9 °F 22.2 °F 30.0 °F 96% 30.18 in 10.0 mi WNW 10.4 mph - N/A   Clear
9:51 AM 33.1 °F 22.2 °F 28.9 °F 85% 30.21 in 10.0 mi NW 17.3 mph - N/A   Clear
10:51 AM 36.0 °F 26.3 °F 30.9 °F 82% 30.25 in 10.0 mi NW 16.1 mph - N/A   Clear
11:51 AM 39.0 °F 29.3 °F 32.0 °F 76% 30.26 in 10.0 mi NW 19.6 mph - N/A   Clear
12:51 PM 42.1 °F 33.3 °F 30.9 °F 65% 30.25 in 10.0 mi NW 19.6 mph 31.1 mph N/A   Scattered Clouds
1:51 PM 43.0 °F 34.5 °F 28.0 °F 56% 30.25 in 10.0 mi NNW 19.6 mph 28.8 mph N/A   Scattered Clouds
2:51 PM 41.0 °F 31.6 °F 23.0 °F 49% 30.25 in 10.0 mi NNW 20.7 mph 32.2 mph N/A   Mostly Cloudy
3:51 PM 43.0 °F 34.8 °F 23.0 °F 45% 30.24 in 10.0 mi NW 18.4 mph 28.8 mph N/A   Mostly Cloudy
4:51 PM 42.1 °F 32.3 °F 19.9 °F 41% 30.25 in 10.0 mi NW 24.2 mph 32.2 mph N/A   Overcast
5:51 PM 41.0 °F 33.9 °F 24.1 °F 51% 30.26 in 10.0 mi NW 12.7 mph - N/A   Overcast
6:51 PM 39.0 °F 32.8 °F 24.1 °F 55% 30.27 in 10.0 mi NW 9.2 mph - N/A   Overcast
7:51 PM 35.1 °F 27.9 °F 26.1 °F 70% 30.29 in 10.0 mi West 9.2 mph - N/A   Mostly Cloudy
8:51 PM 32.0 °F 23.6 °F 26.1 °F 79% 30.28 in 10.0 mi West 10.4 mph - N/A   Clear
9:51 PM 32.0 °F 28.7 °F 25.0 °F 75% 30.29 in 10.0 mi WNW 3.5 mph - N/A   Clear
10:51 PM 30.0 °F 23.2 °F 25.0 °F 82% 30.28 in 10.0 mi West 6.9 mph - N/A   Clear
11:51 PM 28.0 °F - 25.0 °F 88% 30.26 in 10.0 mi Calm Calm - N/A   Clear